TimeMST,TemperatureF,Dew PointF,Humidity,Sea Level PressureIn,VisibilityMPH,Wind Direction,Wind SpeedMPH,Gust SpeedMPH,PrecipitationIn,Events,Conditions,WindDirDegrees,DateUTC
12:53 AM,28.0,9.0,45,30.06,10.0,WSW,4.6,-,N/A,,Clear,250,2013-02-14 07:53:00
1:53 AM,28.0,9.0,45,30.05,10.0,NW,3.5,-,N/A,,Clear,320,2013-02-14 08:53:00
2:53 AM,26.1,9.0,49,30.05,10.0,SSW,4.6,-,N/A,,Clear,210,2013-02-14 09:53:00
3:53 AM,23.0,8.1,53,30.06,10.0,Calm,Calm,-,N/A,,Clear,0,2013-02-14 10:53:00
5:53 AM,21.9,9.0,58,30.09,10.0,WSW,3.5,-,N/A,,Clear,250,2013-02-14 12:53:00
6:53 AM,19.9,7.0,57,30.12,10.0,SSE,3.5,-,N/A,,Clear,150,2013-02-14 13:53:00
7:53 AM,26.1,10.0,51,30.13,10.0,Calm,Calm,-,N/A,,Clear,0,2013-02-14 14:53:00
8:53 AM,36.0,12.9,39,30.12,10.0,Calm,Calm,-,N/A,,Clear,0,2013-02-14 15:53:00
9:53 AM,45.0,15.1,30,30.07,10.0,ENE,3.5,-,N/A,,Clear,70,2013-02-14 16:53:00
10:53 AM,51.1,16.0,25,30.06,10.0,East,5.8,-,N/A,,Clear,100,2013-02-14 17:53:00
11:53 AM,52.0,15.1,23,30.06,10.0,NNW,3.5,-,N/A,,Clear,330,2013-02-14 18:53:00
12:53 PM,55.9,15.1,20,30.02,10.0,Variable,4.6,-,N/A,,Clear,0,2013-02-14 19:53:00
1:53 PM,59.0,15.1,18,30.00,10.0,SW,12.7,-,N/A,,Clear,230,2013-02-14 20:53:00
2:53 PM,61.0,15.1,17,29.97,10.0,WSW,13.8,19.6,N/A,,Clear,240,2013-02-14 21:53:00
3:53 PM,61.0,12.0,15,29.96,10.0,West,12.7,-,N/A,,Clear,270,2013-02-14 22:53:00
4:53 PM,60.1,10.0,14,29.96,10.0,West,15.0,-,N/A,,Clear,260,2013-02-14 23:53:00
5:53 PM,55.9,12.0,18,29.99,10.0,WSW,11.5,-,N/A,,Clear,250,2013-02-15 00:53:00
6:53 PM,50.0,10.9,21,30.03,10.0,West,8.1,-,N/A,,Clear,270,2013-02-15 01:53:00
7:53 PM,45.0,10.0,24,30.04,10.0,West,4.6,-,N/A,,Clear,280,2013-02-15 02:53:00
8:53 PM,41.0,10.9,29,30.04,10.0,West,5.8,-,N/A,,Clear,280,2013-02-15 03:53:00
9:53 PM,36.0,8.1,31,30.07,10.0,Calm,Calm,-,N/A,,Clear,0,2013-02-15 04:53:00
10:53 PM,34.0,10.9,38,30.07,10.0,Calm,Calm,-,N/A,,Clear,0,2013-02-15 05:53:00
11:53 PM,39.9,12.0,32,30.09,10.0,NE,11.5,16.1,N/A,,Clear,40,2013-02-15 06:53:00